This is the latest recevied weather packets stored in our database for station/object WB5LFS-1. If no packets are shown the sender has not sent any weather packets the latest 10 day(s).
| Time | Temp. | Humidity | Pressure | Rain* | Wind** | Luminosity | Snow |
|---|---|---|---|---|---|---|---|
| 1777799512 | 8.89° C | 55% | 1014.6 hPa | 0 mm | - | - | - |
| 1777798612 | 9.44° C | 56% | 1014.5 hPa | 0 mm | - | - | - |
| 1777797712 | 9.44° C | 57% | 1014.4 hPa | 0 mm | - | - | - |
| 1777796812 | 9.44° C | 63% | 1014.1 hPa | 0 mm | - | - | - |
| 1777795912 | 9.44° C | 63% | 1013.9 hPa | 0 mm | - | - | - |
| 1777795012 | 9.44° C | 65% | 1013.9 hPa | 0 mm | - | - | - |
| 1777794112 | 9.44° C | 67% | 1013.7 hPa | 0 mm | - | - | - |
| 1777793212 | 9.44° C | 65% | 1013.5 hPa | 0 mm | - | - | - |
| 1777792312 | 10° C | 66% | 1013.4 hPa | 0 mm | - | - | - |
| 1777791412 | 10° C | 67% | 1013.3 hPa | 0 mm | - | - | - |
| 1777790512 | 10° C | 68% | 1013 hPa | 0 mm | - | - | - |
| 1777789612 | 10° C | 70% | 1012.9 hPa | 0 mm | - | - | - |
| 1777788712 | 9.44° C | 73% | 1012.8 hPa | 0 mm | - | - | - |
| 1777787812 | 9.44° C | 75% | 1013.1 hPa | 0 mm | - | - | - |
| 1777786912 | 9.44° C | 81% | 1012.9 hPa | 0 mm | - | - | - |
| 1777786012 | 8.89° C | 82% | 1012.9 hPa | 0 mm | - | - | - |
| 1777785112 | 8.89° C | 85% | 1012.8 hPa | 0 mm | - | - | - |
| 1777784212 | 8.89° C | 86% | 1013 hPa | 0 mm | - | - | - |
| 1777783312 | 8.89° C | 86% | 1013.1 hPa | 0 mm | - | - | - |
| 1777782412 | 8.89° C | 88% | 1013.2 hPa | 0 mm | - | - | - |
| 1777781512 | 8.33° C | 87% | 1013.2 hPa | 0 mm | - | - | - |
| 1777780612 | 8.33° C | 87% | 1013 hPa | 0 mm | - | - | - |
| 1777779712 | 8.33° C | 86% | 1012.9 hPa | 0 mm | - | - | - |
| 1777778812 | 8.33° C | 85% | 1012.8 hPa | 0 mm | - | - | - |
| 1777777912 | 8.33° C | 84% | 1013 hPa | 0 mm | - | - | - |
* Rain latest hour (hover to see other rain measurements)
** Current wind speed in m/s (hover to see current wind gust speed)